Voltar ao catálogo

PICOSAT 1&2

TETHERED

AtivoCiênciaLEO
NORAD 26080·PAYLOAD·🇺🇸 United States

Lançado Jan 27, 2000 de Vandenberg Space Force Base

Loading…

Próximas Passagens (próximas 24 horas)

TLE

AtualizadoSource: Space-Track

Época: Sep 14, 2026, 09:36 UTC

1 26080U 00004H   26257.40027137  .00000365  00000-0  11492-3 0  9990
2 26080 100.2067 311.6628 0028680 267.7211  92.0692 14.47808272399823

Acompanhe PICOSAT 1&2 em tempo real com AllMySat

Download on the App Store